Torna al catalogo

USA 259

AttivoMilitareHEO
NORAD 40344·PAYLOAD·🇺🇸 United States

Lanciato Dec 13, 2014 da Vandenberg Space Force Base

Loading…

Prossimi Passaggi (prossime 24 ore)

TLE

AggiornatoSource: Mike McCants

Epoca: Sep 14, 2026, 17:48 UTC

1 40344U 14081A   26257.74185183  .00000202  00000-0  00000-0 0    05
2 40344  63.1235  62.3894 7105988 272.4777  15.2326  2.00612648  1394

Traccia USA 259 in tempo reale con AllMySat

Download on the App Store